Location: Aciu?a
(46.2833°N, 22.4500°E)
Time: 04:40:49
(UTC+00:00)

SL-16 R/B - Pass Details

Date: 25 October 2021
Orbit: 842 x 846 km, 71.0° (Epoch: 04 December)

Event Time Altitude Azimuth Distance (km) Brightness Sun altitude
Rises 17:38:53 0° 235° (SW) 3,392 6.1 -23.5°
Reaches altitude 10° 17:41:35 10° 245° (WSW) 2,462 5.4 -23.9°
Maximum altitude 17:46:37 32° 308° (NW) 1,406 3.8 -24.8°
Drops below altitude 10° 17:51:42 10° 12° (NNE) 2,476 4.6 -25.7°
Enters shadow 17:53:49 - 20° (NNE) 3,198 5.1 -26.0°
